This demonstration page uses our WeatherBlox Daily Observations layout. Learn more.

Left ArrowRight Arrow

39.51506, -84.39828

Hourly Observations for February 9, 2016

Temp ( °F °C ) Dew Point ( °F °C ) Humidity (%) Winds ( mph kmh ) Pressure ( in mb ) Visibility ( mi km ) Precip ( " mm )
12:15 am 00:15 Cloudy with Light Snow 27 -2.8 22 -5.7 81 81 W 8 13 29.80 1009 2 3 0.00 0.00
12:35 am 00:35 Cloudy with Light Snow 26 -3.3 22 -5.8 83 83 W 8 13 29.80 1009 2 3 0.00 0.00
12:55 am 00:55 Cloudy with Light Snow 24 -4.2 20 -6.9 82 82 W 10 17 29.80 1009 2 3 0.00 0.00
1:15 am 01:15 Cloudy with Light Snow 24 -4.2 20 -6.9 82 82 W 9 15 29.80 1009 2 3 0.00 0.00
1:35 am 01:35 Cloudy with Light Snow 24 -4.2 20 -6.7 83 83 W 8 13 29.77 1008 2 2 0.00 0.00
1:55 am 01:55 Cloudy with Light Snow 24 -4.2 20 -6.7 83 83 WSW 8 13 29.77 1008 2 3 0.00 0.00
2:15 am 02:15 Cloudy with Light Snow 24 -4.2 20 -6.7 83 83 WSW 9 15 29.77 1008 2 3 0.00 0.00
2:35 am 02:35 Cloudy with Light Snow 24 -4.5 20 -6.9 84 84 WSW 9 15 29.77 1008 2 3 0.00 0.00
2:55 am 02:55 Cloudy with Light Snow 23 -5 19 -7.3 84 84 SW 8 13 29.77 1008 2 3 0.00 0.00
3:15 am 03:15 Cloudy with Light Snow 23 -5 19 -7.3 84 84 SW 8 13 29.77 1008 2 2 0.00 0.00
3:35 am 03:35 Cloudy with Light Snow 23 -5 19 -7.2 85 85 WSW 9 15 29.77 1008 2 3 0.00 0.00
3:55 am 03:55 Cloudy with Light Snow 23 -5 19 -7.5 83 83 WSW 8 13 29.77 1008 2 3 0.00 0.00
4:15 am 04:15 Cloudy with Light Snow 23 -5.1 19 -7.5 83 83 WSW 9 15 N/A 2 3 0.00 0.00
4:35 am 04:35 Cloudy with Light Snow 23 -5.1 19 -7.5 83 83 SW 8 13 29.77 1008 3 4 0.00 0.00
4:55 am 04:55 Cloudy with Light Snow 23 -5 19 -7.5 83 83 WSW 9 15 29.77 1008 3 4 0.00 0.00
5:15 am 05:15 Cloudy with Light Snow 23 -5 19 -7.5 83 83 WSW 8 13 29.77 1008 2 3 0.00 0.00
5:35 am 05:35 Cloudy with Light Snow 23 -5 19 -7.3 84 84 WSW 9 15 29.77 1008 2 3 0.00 0.00
5:55 am 05:55 Cloudy with Light Snow 23 -5 19 -7.3 84 84 WSW 10 17 29.77 1008 2 3 0.00 0.00
6:15 am 06:15 Cloudy with Light Snow 23 -5 19 -7.3 84 84 WSW 8 13 29.80 1009 2 3 0.00 0.00
6:35 am 06:35 Cloudy with Light Snow 23 -5 19 -7.3 84 84 WSW 9 15 29.80 1009 2 3 0.00 0.00
6:55 am 06:55 Cloudy with Light Snow 23 -5 19 -7.3 84 84 WSW 9 15 29.80 1009 2 3 0.00 0.00
7:15 am 07:15 Cloudy with Light Snow 23 -5 19 -7.3 84 84 WSW 9 15 29.80 1009 3 4 0.00 0.00
7:35 am 07:35 Cloudy with Light Snow 23 -5 19 -7.5 83 83 WSW 9 15 29.80 1009 3 5 0.00 0.00
7:55 am 07:55 Cloudy with Light Snow 23 -5 18 -7.7 82 82 WSW 12 19 29.80 1009 3 4 0.00 0.00
8:15 am 08:15 Cloudy with Light Snow 23 -5.1 18 -8 80 80 WSW 10 17 29.80 1009 3 5 0.00 0.00
8:35 am 08:35 Cloudy with Light Snow 23 -5.1 18 -8 80 80 WSW 9 15 29.80 1009 4 6 0.00 0.00
8:55 am 08:55 Cloudy with Light Snow 23 -5 18 -7.8 81 81 WSW 9 15 29.83 1010 7 11 0.00 0.00
9:15 am 09:15 Cloudy 24 -4.2 19 -7.5 78 78 WSW 8 13 29.83 1010 10 16 0.00 0.00
9:35 am 09:35 Cloudy 24 -4.2 18 -7.6 77 77 WSW 10 17 29.83 1010 10 16 0.00 0.00
9:55 am 09:55 Cloudy 24 -4.2 18 -7.7 77 77 WSW 7 11 29.83 1010 10 16 0.00 0.00
10:15 am 10:15 Cloudy 24 -4.2 18 -8 75 75 WSW 9 15 29.83 1010 10 16 0.00 0.00
10:35 am 10:35 Cloudy 26 -3.5 19 -7.4 75 75 WSW 12 19 29.83 1010 10 16 0.00 0.00
10:55 am 10:55 Cloudy 27 -2.8 19 -7 73 73 W 9 15 29.83 1010 7 11 0.00 0.00
11:15 am 11:15 Cloudy with Light Snow 27 -2.8 20 -6.7 75 75 W 15 24 29.83 1010 2 3 0.00 0.00
11:35 am 11:35 Cloudy with Light Snow 27 -2.8 19 -7.5 70 70 W 12 19 29.83 1010 5 8 0.00 0.00
11:55 am 11:55 Cloudy with Light Snow 27 -2.8 18 -8 68 68 W 12 19 29.83 1010 7 11 0.00 0.00
12:15 pm 12:15 Cloudy with Light Snow 27 -2.8 18 -8 68 68 WSW 13 20 29.83 1010 10 16 0.00 0.00
12:35 pm 12:35 Cloudy 27 -2.8 17 -8.2 67 67 W 20 31 29.83 1010 10 16 0.00 0.00
12:55 pm 12:55 Cloudy 27 -2.8 17 -8.1 67 67 W 15 24 29.83 1010 10 16 0.00 0.00
1:15 pm 13:15 Cloudy 27 -2.8 17 -8.2 67 67 W 15 24 29.83 1010 10 16 0.00 0.00
1:35 pm 13:35 Cloudy with Light Snow 27 -2.8 17 -8.5 65 65 W 16 26 29.83 1010 10 16 0.00 0.00
1:55 pm 13:55 Cloudy with Light Snow 27 -2.8 18 -8 68 68 W 13 20 29.83 1010 3 5 0.00 0.00
2:15 pm 14:15 Cloudy with Light Snow 27 -2.8 18 -8 68 68 W 15 24 29.83 1010 4 6 0.00 0.00
2:35 pm 14:35 Cloudy with Light Snow 27 -2.8 19 -7.4 71 71 W 12 19 29.83 1010 2 3 0.00 0.00
2:55 pm 14:55 Cloudy with Light Snow 27 -2.8 19 -7.1 73 73 W 13 20 29.83 1010 3 4 0.00 0.00
3:15 pm 15:15 Cloudy with Light Snow 27 -2.8 19 -7.5 70 70 W 13 20 29.83 1010 10 16 0.00 0.00
3:35 pm 15:35 Cloudy with Light Snow 27 -2.8 18 -7.7 69 69 W 12 19 29.85 1011 5 8 0.00 0.00
3:55 pm 15:55 Cloudy with Light Snow 27 -2.8 19 -7.4 71 71 W 9 15 29.85 1011 5 8 0.00 0.00
4:15 pm 16:15 Cloudy with Light Snow 27 -2.8 19 -7.5 70 70 W 10 17 29.85 1011 5 8 0.00 0.00
4:35 pm 16:35 Cloudy with Light Snow 27 -2.8 19 -7.5 70 70 W 14 22 29.88 1012 10 16 0.00 0.00
4:55 pm 16:55 Cloudy with Light Snow 27 -2.8 19 -7.2 72 72 WSW 14 22 29.88 1012 5 8 0.00 0.00
5:15 pm 17:15 Cloudy with Light Snow 27 -2.8 19 -7.1 73 73 W 10 17 29.88 1012 4 6 0.00 0.00
5:35 pm 17:35 Cloudy with Light Snow 27 -2.8 19 -7.2 72 72 W 12 19 29.88 1012 4 6 0.00 0.00
5:55 pm 17:55 Cloudy with Light Snow 27 -2.8 19 -7.4 71 71 W 12 19 29.88 1012 7 11 0.00 0.00
6:15 pm 18:15 Cloudy with Light Snow 27 -2.8 19 -7.2 72 72 W 15 24 29.91 1013 7 11 0.00 0.00
6:35 pm 18:35 Cloudy with Light Snow 27 -2.8 19 -7 73 73 W 13 20 29.91 1013 7 11 0.00 0.00
6:55 pm 18:55 Cloudy with Light Snow 25 -4.1 18 -7.9 75 75 W 13 20 29.91 1013 4 6 0.00 0.00
7:15 pm 19:15 Cloudy with Light Snow 24 -4.2 17 -8.2 74 74 W 9 15 29.91 1013 7 11 0.00 0.00
7:35 pm 19:35 Cloudy with Light Snow 24 -4.2 18 -8 75 75 W 10 17 29.94 1014 5 8 0.00 0.00
7:55 pm 19:55 Cloudy with Light Snow 24 -4.2 17 -8.5 72 72 W 12 19 29.94 1014 10 16 0.00 0.00
8:15 pm 20:15 Cloudy with Light Snow 24 -4.2 17 -8.5 72 72 W 12 19 29.94 1014 7 11 0.00 0.00
8:35 pm 20:35 Cloudy with Light Snow 24 -4.2 17 -8.5 72 72 W 10 17 29.94 1014 10 16 0.00 0.00
8:55 pm 20:55 Cloudy 23 -5 14 -9.9 69 69 WNW 14 22 29.94 1014 10 16 0.00 0.00
9:15 pm 21:15 Cloudy 23 -5.1 14 -10.2 68 68 WNW 10 17 29.94 1014 10 16 0.00 0.00
9:35 pm 21:35 Cloudy with Light Snow 23 -5.2 14 -9.8 70 70 W 14 22 29.94 1014 10 16 0.00 0.00
9:55 pm 21:55 Cloudy with Light Snow 22 -5.6 12 -11.2 65 65 W 13 20 29.94 1014 10 16 0.00 0.00
10:15 pm 22:15 Cloudy with Light Snow 22 -5.6 12 -11.1 66 66 W 10 17 29.97 1015 10 16 0.00 0.00
10:35 pm 22:35 Cloudy with Light Snow 21 -6.1 11 -11.5 66 66 WNW 12 19 29.97 1015 7 11 0.00 0.00
10:55 pm 22:55 Cloudy with Light Snow 21 -6.3 12 -11.1 69 69 W 12 19 29.97 1015 10 16 0.00 0.00
11:15 pm 23:15 Cloudy with Light Snow 20 -6.6 11 -11.7 67 67 W 10 17 29.97 1015 10 16 0.00 0.00
11:35 pm 23:35 Mostly Cloudy 19 -7 9 -12.7 64 64 W 12 19 29.97 1015 10 16 0.00 0.00
11:55 pm 23:55 Partly Cloudy 19 -7.1 9 -12.7 65 65 WSW 8 13 29.97 1015 10 16 0.00 0.00

Powered by AerisWeather